Time,TemperatureF,DewpointF,PressureIn,WindDirection,WindDirectionDegrees,WindSpeedMPH,WindSpeedGustMPH,Humidity,HourlyPrecipIn,Conditions,Clouds,dailyrainin,SoftwareType,DateUTC
2013-09-06 00:00:00,53.9,44.0,30.10,NW,325,2.0,4.5,68,0.00,n/a,n/a,-99.99,Henriksen +1-Wire,2013-09-06 04:00:00,
2013-09-06 00:02:00,53.9,44.0,30.10,NNW,327,1.4,4.5,68,0.00,n/a,n/a,-99.99,Henriksen +1-Wire,2013-09-06 04:02:00,
2013-09-06 00:04:00,53.9,44.0,30.10,NNW,335,0.2,4.5,69,0.00,n/a,n/a,-99.99,Henriksen +1-Wire,2013-09-06 04:04:00,
2013-09-06 00:10:00,53.3,44.0,30.10,NNW,342,0.4,1.9,70,0.00,n/a,n/a,-99.99,Henriksen +1-Wire,2013-09-06 04:10:00,
2013-09-06 00:16:00,52.8,44.2,30.10,NE,42,0.8,1.9,72,0.00,n/a,n/a,-99.99,Henriksen +1-Wire,2013-09-06 04:16:00,
2013-09-06 00:18:00,52.7,44.5,30.10,ENE,66,0.5,1.9,73,0.00,n/a,n/a,-99.99,Henriksen +1-Wire,2013-09-06 04:18:00,
2013-09-06 00:24:00,52.1,44.6,30.10,ENE,70,0.0,1.3,75,0.00,n/a,n/a,-99.99,Henriksen +1-Wire,2013-09-06 04:24:00,
2013-09-06 00:30:00,51.5,44.5,30.10,WNW,293,0.0,0.7,76,0.00,n/a,n/a,-99.99,Henriksen +1-Wire,2013-09-06 04:30:00,
2013-09-06 00:32:00,51.2,44.2,30.10,WNW,294,0.2,0.6,76,0.00,n/a,n/a,-99.99,Henriksen +1-Wire,2013-09-06 04:32:00,
2013-09-06 00:38:00,51.5,44.2,30.10,NW,322,0.9,1.9,75,0.00,n/a,n/a,-99.99,Henriksen +1-Wire,2013-09-06 04:38:00,
2013-09-06 00:44:00,51.9,43.9,30.11,NNW,348,0.3,3.9,73,0.00,n/a,n/a,-99.99,Henriksen +1-Wire,2013-09-06 04:44:00,
2013-09-06 00:50:00,51.8,44.0,30.11,NNW,341,1.0,3.4,74,0.00,n/a,n/a,-99.99,Henriksen +1-Wire,2013-09-06 04:50:00,
2013-09-06 00:52:00,51.7,44.0,30.11,NNW,329,1.2,3.4,74,0.00,n/a,n/a,-99.99,Henriksen +1-Wire,2013-09-06 04:52:00,
2013-09-06 00:58:00,51.8,40.5,30.11,NNW,335,1.0,3.4,65,0.00,n/a,n/a,-99.99,Henriksen +1-Wire,2013-09-06 04:58:00,
2013-09-06 01:04:00,51.6,38.6,30.11,NNW,342,0.7,3.4,60,0.00,n/a,n/a,-99.99,Henriksen +1-Wire,2013-09-06 05:04:00,
2013-09-06 01:10:00,51.5,43.4,30.11,North,3,0.0,2.0,73,0.00,n/a,n/a,-99.99,Henriksen +1-Wire,2013-09-06 05:10:00,
2013-09-06 01:16:00,51.4,43.9,30.11,ENE,60,0.7,1.9,75,0.00,n/a,n/a,-99.99,Henriksen +1-Wire,2013-09-06 05:16:00,
2013-09-06 01:22:00,50.9,44.3,30.11,ESE,103,0.3,1.9,77,0.00,n/a,n/a,-99.99,Henriksen +1-Wire,2013-09-06 05:22:00,
2013-09-06 01:28:00,50.2,44.1,30.11,SW,227,0.0,1.3,79,0.00,n/a,n/a,-99.99,Henriksen +1-Wire,2013-09-06 05:28:00,
2013-09-06 01:34:00,49.9,44.7,30.11,SSW,194,1.2,1.9,82,0.00,n/a,n/a,-99.99,Henriksen +1-Wire,2013-09-06 05:34:00,
2013-09-06 01:40:00,49.2,39.7,30.11,SSW,200,1.5,2.3,69,0.00,n/a,n/a,-99.99,Henriksen +1-Wire,2013-09-06 05:40:00,
2013-09-06 01:46:00,49.0,43.8,30.11,SE,133,0.2,2.3,82,0.00,n/a,n/a,-99.99,Henriksen +1-Wire,2013-09-06 05:46:00,
2013-09-06 01:52:00,48.6,44.2,30.11,ESE,123,0.0,1.0,84,0.00,n/a,n/a,-99.99,Henriksen +1-Wire,2013-09-06 05:52:00,
2013-09-06 01:58:00,48.3,44.1,30.11,SW,219,0.4,1.0,85,0.00,n/a,n/a,-99.99,Henriksen +1-Wire,2013-09-06 05:58:00,
2013-09-06 02:04:00,48.2,43.9,30.11,ENE,67,0.1,1.0,85,0.00,n/a,n/a,-99.99,Henriksen +1-Wire,2013-09-06 06:04:00,
2013-09-06 02:10:00,47.5,43.8,30.11,WNW,285,0.0,0.9,86,0.00,n/a,n/a,-99.99,Henriksen +1-Wire,2013-09-06 06:10:00,
2013-09-06 02:16:00,47.4,43.9,30.11,WSW,252,0.3,1.3,87,0.00,n/a,n/a,-99.99,Henriksen +1-Wire,2013-09-06 06:16:00,
2013-09-06 02:22:00,47.9,44.1,30.11,North,0,0.7,2.9,86,0.00,n/a,n/a,-99.99,Henriksen +1-Wire,2013-09-06 06:22:00,
2013-09-06 02:28:00,48.0,44.0,30.12,NE,46,0.2,2.9,86,0.00,n/a,n/a,-99.99,Henriksen +1-Wire,2013-09-06 06:28:00,
2013-09-06 02:34:00,47.4,44.0,30.12,ENE,69,0.0,1.9,87,0.00,n/a,n/a,-99.99,Henriksen +1-Wire,2013-09-06 06:34:00,
2013-09-06 02:40:00,47.0,43.9,30.12,NE,47,0.0,0.0,89,0.00,n/a,n/a,-99.99,Henriksen +1-Wire,2013-09-06 06:40:00,
2013-09-06 02:46:00,46.7,43.7,30.12,ENE,63,0.0,0.0,89,0.00,n/a,n/a,-99.99,Henriksen +1-Wire,2013-09-06 06:46:00,
2013-09-06 02:52:00,46.6,43.7,30.12,ENE,74,0.0,0.0,89,0.00,n/a,n/a,-99.99,Henriksen +1-Wire,2013-09-06 06:52:00,
2013-09-06 02:58:00,46.2,32.1,30.12,SE,134,0.0,0.0,57,0.00,n/a,n/a,-99.99,Henriksen +1-Wire,2013-09-06 06:58:00,
2013-09-06 03:04:00,46.2,42.2,30.12,ESE,102,0.0,0.0,85,0.00,n/a,n/a,-99.99,Henriksen +1-Wire,2013-09-06 07:04:00,
2013-09-06 03:10:00,45.9,43.5,30.12,ESE,111,0.0,0.0,91,0.00,n/a,n/a,-99.99,Henriksen +1-Wire,2013-09-06 07:10:00,
2013-09-06 03:16:00,45.1,43.1,30.12,NW,324,0.0,0.0,92,0.00,n/a,n/a,-99.99,Henriksen +1-Wire,2013-09-06 07:16:00,
2013-09-06 03:22:00,44.4,43.1,30.12,WNW,286,0.0,0.0,94,0.00,n/a,n/a,-99.99,Henriksen +1-Wire,2013-09-06 07:22:00,
2013-09-06 03:28:00,44.7,43.2,30.12,WNW,293,0.0,0.0,94,0.00,n/a,n/a,-99.99,Henriksen +1-Wire,2013-09-06 07:28:00,
2013-09-06 03:34:00,44.9,43.0,30.13,ESE,105,0.0,0.0,92,0.00,n/a,n/a,-99.99,Henriksen +1-Wire,2013-09-06 07:34:00,
2013-09-06 03:40:00,44.8,43.0,30.13,SE,133,0.0,0.0,93,0.00,n/a,n/a,-99.99,Henriksen +1-Wire,2013-09-06 07:40:00,
2013-09-06 03:46:00,44.9,43.1,30.13,East,92,0.0,0.0,93,0.00,n/a,n/a,-99.99,Henriksen +1-Wire,2013-09-06 07:46:00,
2013-09-06 03:52:00,44.7,42.8,30.13,SSE,148,0.0,0.0,93,0.00,n/a,n/a,-99.99,Henriksen +1-Wire,2013-09-06 07:52:00,
2013-09-06 03:58:00,44.5,42.8,30.14,East,95,0.0,0.0,93,0.00,n/a,n/a,-99.99,Henriksen +1-Wire,2013-09-06 07:58:00,
2013-09-06 04:04:00,43.9,42.3,30.13,West,270,0.0,0.0,94,0.00,n/a,n/a,-99.99,Henriksen +1-Wire,2013-09-06 08:04:00,
2013-09-06 04:10:00,43.8,42.7,30.13,WNW,288,0.0,0.0,96,0.00,n/a,n/a,-99.99,Henriksen +1-Wire,2013-09-06 08:10:00,
2013-09-06 04:16:00,43.9,42.8,30.14,NW,325,0.0,0.0,95,0.00,n/a,n/a,-99.99,Henriksen +1-Wire,2013-09-06 08:16:00,
2013-09-06 04:22:00,44.2,42.9,30.14,ENE,57,0.0,0.0,95,0.00,n/a,n/a,-99.99,Henriksen +1-Wire,2013-09-06 08:22:00,
2013-09-06 04:28:00,44.2,42.7,30.14,NE,56,0.0,0.0,94,0.00,n/a,n/a,-99.99,Henriksen +1-Wire,2013-09-06 08:28:00,
2013-09-06 04:34:00,44.0,42.2,30.14,South,177,0.0,0.0,93,0.00,n/a,n/a,-99.99,Henriksen +1-Wire,2013-09-06 08:34:00,
2013-09-06 04:40:00,44.0,42.3,30.14,East,100,0.0,0.0,93,0.00,n/a,n/a,-99.99,Henriksen +1-Wire,2013-09-06 08:40:00,
2013-09-06 04:46:00,44.0,42.1,30.15,ENE,70,0.5,1.6,92,0.00,n/a,n/a,-99.99,Henriksen +1-Wire,2013-09-06 08:46:00,
2013-09-06 04:52:00,43.3,41.6,30.15,East,85,0.9,1.6,93,0.00,n/a,n/a,-99.99,Henriksen +1-Wire,2013-09-06 08:52:00,
2013-09-06 04:57:00,43.3,41.8,30.15,East,86,0.0,1.3,94,0.00,n/a,n/a,-99.99,Henriksen +1-Wire,2013-09-06 08:57:00,
2013-09-06 05:04:00,43.2,41.6,30.15,East,99,0.0,0.6,93,0.00,n/a,n/a,-99.99,Henriksen +1-Wire,2013-09-06 09:04:00,
2013-09-06 05:10:00,43.2,41.7,30.15,East,85,0.0,0.0,94,0.00,n/a,n/a,-99.99,Henriksen +1-Wire,2013-09-06 09:10:00,
2013-09-06 05:16:00,43.1,32.6,30.15,NNE,33,0.0,0.0,66,0.00,n/a,n/a,-99.99,Henriksen +1-Wire,2013-09-06 09:16:00,
2013-09-06 05:22:00,42.8,40.3,30.15,NNW,331,0.0,0.0,90,0.00,n/a,n/a,-99.99,Henriksen +1-Wire,2013-09-06 09:22:00,
2013-09-06 05:28:00,42.7,41.2,30.16,NNW,341,0.0,0.0,94,0.00,n/a,n/a,-99.99,Henriksen +1-Wire,2013-09-06 09:28:00,
2013-09-06 05:34:00,42.4,34.7,30.15,East,94,0.0,0.0,73,0.00,n/a,n/a,-99.99,Henriksen +1-Wire,2013-09-06 09:34:00,
2013-09-06 05:40:00,42.5,40.4,30.15,East,85,0.0,0.0,92,0.00,n/a,n/a,-99.99,Henriksen +1-Wire,2013-09-06 09:40:00,
2013-09-06 05:46:00,41.9,40.7,30.15,NNW,329,0.0,0.0,95,0.00,n/a,n/a,-99.99,Henriksen +1-Wire,2013-09-06 09:46:00,
2013-09-06 05:52:00,41.9,40.7,30.16,West,281,0.0,0.0,95,0.00,n/a,n/a,-99.99,Henriksen +1-Wire,2013-09-06 09:52:00,
2013-09-06 05:58:00,42.0,40.8,30.15,ESE,116,0.0,0.0,95,0.00,n/a,n/a,-99.99,Henriksen +1-Wire,2013-09-06 09:58:00,
2013-09-06 06:04:00,41.9,36.7,30.15,SW,221,0.0,0.0,81,0.00,n/a,n/a,-99.99,Henriksen +1-Wire,2013-09-06 10:04:00,
2013-09-06 06:09:00,41.9,40.4,30.16,SW,217,0.0,0.0,94,0.00,n/a,n/a,-99.99,Henriksen +1-Wire,2013-09-06 10:09:00,
2013-09-06 06:16:00,41.9,40.6,30.16,East,84,0.0,0.0,95,0.00,n/a,n/a,-99.99,Henriksen +1-Wire,2013-09-06 10:16:00,
2013-09-06 06:22:00,41.7,40.7,30.16,ENE,64,0.0,0.0,96,0.00,n/a,n/a,-99.99,Henriksen +1-Wire,2013-09-06 10:22:00,
2013-09-06 06:27:00,41.8,40.6,30.17,East,82,0.0,0.0,95,0.00,n/a,n/a,-99.99,Henriksen +1-Wire,2013-09-06 10:27:00,
2013-09-06 06:33:00,41.7,40.5,30.17,SSW,195,0.0,0.0,95,0.00,n/a,n/a,-99.99,Henriksen +1-Wire,2013-09-06 10:33:00,
2013-09-06 06:40:00,42.0,41.0,30.17,South,171,0.0,0.0,96,0.00,n/a,n/a,-99.99,Henriksen +1-Wire,2013-09-06 10:40:00,
2013-09-06 06:46:00,42.2,41.2,30.17,ENE,76,0.0,0.0,96,0.00,n/a,n/a,-99.99,Henriksen +1-Wire,2013-09-06 10:46:00,
2013-09-06 06:51:00,42.3,41.3,30.18,East,90,0.0,0.0,96,0.00,n/a,n/a,-99.99,Henriksen +1-Wire,2013-09-06 10:51:00,
2013-09-06 06:58:00,42.6,41.5,30.18,ESE,110,0.0,0.0,95,0.00,n/a,n/a,-99.99,Henriksen +1-Wire,2013-09-06 10:58:00,
2013-09-06 07:04:00,43.1,42.1,30.18,ENE,78,0.0,0.0,96,0.00,n/a,n/a,-99.99,Henriksen +1-Wire,2013-09-06 11:04:00,
2013-09-06 07:10:00,42.9,41.9,30.18,East,83,0.0,0.0,96,0.00,n/a,n/a,-99.99,Henriksen +1-Wire,2013-09-06 11:10:00,
2013-09-06 07:16:00,43.2,42.2,30.18,East,92,0.0,0.0,96,0.00,n/a,n/a,-99.99,Henriksen +1-Wire,2013-09-06 11:16:00,
2013-09-06 07:22:00,43.7,42.7,30.18,East,79,0.0,0.0,96,0.00,n/a,n/a,-99.99,Henriksen +1-Wire,2013-09-06 11:22:00,
2013-09-06 07:27:00,44.3,43.1,30.18,East,82,0.0,0.0,95,0.00,n/a,n/a,-99.99,Henriksen +1-Wire,2013-09-06 11:27:00,
2013-09-06 07:34:00,44.8,36.5,30.18,East,81,0.0,2.0,72,0.00,n/a,n/a,-99.99,Henriksen +1-Wire,2013-09-06 11:34:00,
2013-09-06 07:40:00,45.5,43.6,30.18,East,83,0.0,1.0,93,0.00,n/a,n/a,-99.99,Henriksen +1-Wire,2013-09-06 11:40:00,
2013-09-06 07:46:00,45.9,44.4,30.18,ENE,76,0.0,1.0,94,0.00,n/a,n/a,-99.99,Henriksen +1-Wire,2013-09-06 11:46:00,
2013-09-06 07:52:00,47.2,45.1,30.18,NNW,330,1.5,3.5,92,0.00,n/a,n/a,-99.99,Henriksen +1-Wire,2013-09-06 11:52:00,
2013-09-06 07:57:00,49.3,43.6,30.18,NNW,334,0.5,4.6,80,0.00,n/a,n/a,-99.99,Henriksen +1-Wire,2013-09-06 11:57:00,
2013-09-06 08:04:00,50.3,44.0,30.17,NNW,327,1.4,3.5,78,0.00,n/a,n/a,-99.99,Henriksen +1-Wire,2013-09-06 12:04:00,
2013-09-06 08:09:00,51.0,44.2,30.17,NNW,327,2.2,4.5,77,0.00,n/a,n/a,-99.99,Henriksen +1-Wire,2013-09-06 12:09:00,
2013-09-06 08:16:00,51.4,44.2,30.18,NNW,336,0.4,4.5,76,0.00,n/a,n/a,-99.99,Henriksen +1-Wire,2013-09-06 12:16:00,
2013-09-06 08:22:00,52.0,44.7,30.18,NNW,327,2.2,4.2,75,0.00,n/a,n/a,-99.99,Henriksen +1-Wire,2013-09-06 12:22:00,
2013-09-06 08:28:00,52.5,44.3,30.18,NW,322,3.1,5.0,73,0.00,n/a,n/a,-99.99,Henriksen +1-Wire,2013-09-06 12:28:00,
2013-09-06 08:34:00,52.8,43.8,30.18,NW,324,2.7,5.6,71,0.00,n/a,n/a,-99.99,Henriksen +1-Wire,2013-09-06 12:34:00,
2013-09-06 08:40:00,53.1,44.2,30.18,NNW,328,2.6,5.4,71,0.00,n/a,n/a,-99.99,Henriksen +1-Wire,2013-09-06 12:40:00,
2013-09-06 08:46:00,53.5,44.1,30.18,NNW,331,3.3,6.6,70,0.00,n/a,n/a,-99.99,Henriksen +1-Wire,2013-09-06 12:46:00,
2013-09-06 08:52:00,53.7,44.0,30.18,NW,319,3.6,6.6,69,0.00,n/a,n/a,-99.99,Henriksen +1-Wire,2013-09-06 12:52:00,
2013-09-06 08:58:00,54.2,44.0,30.18,NNW,330,3.6,6.7,68,0.00,n/a,n/a,-99.99,Henriksen +1-Wire,2013-09-06 12:58:00,
2013-09-06 09:04:00,54.6,44.2,30.18,NNW,337,3.3,6.3,67,0.00,n/a,n/a,-99.99,Henriksen +1-Wire,2013-09-06 13:04:00,
2013-09-06 09:10:00,55.0,37.8,30.19,NNW,336,2.5,4.9,51,0.00,n/a,n/a,-99.99,Henriksen +1-Wire,2013-09-06 13:10:00,
2013-09-06 09:16:00,55.6,43.8,30.19,NNW,331,2.2,4.9,64,0.00,n/a,n/a,-99.99,Henriksen +1-Wire,2013-09-06 13:16:00,
2013-09-06 09:22:00,56.0,44.8,30.19,NW,326,1.9,5.1,65,0.00,n/a,n/a,-99.99,Henriksen +1-Wire,2013-09-06 13:22:00,
2013-09-06 09:28:00,56.2,44.2,30.19,NNW,332,4.1,6.1,63,0.00,n/a,n/a,-99.99,Henriksen +1-Wire,2013-09-06 13:28:00,
2013-09-06 09:34:00,56.5,43.9,30.19,NNW,336,3.2,6.6,62,0.00,n/a,n/a,-99.99,Henriksen +1-Wire,2013-09-06 13:34:00,
2013-09-06 09:40:00,56.9,44.1,30.20,NW,322,3.0,6.6,62,0.00,n/a,n/a,-99.99,Henriksen +1-Wire,2013-09-06 13:40:00,
2013-09-06 09:46:00,57.4,44.4,30.19,NNW,336,2.7,5.6,61,0.00,n/a,n/a,-99.99,Henriksen +1-Wire,2013-09-06 13:46:00,
2013-09-06 09:52:00,57.5,36.8,30.19,NW,322,3.1,5.9,45,0.00,n/a,n/a,-99.99,Henriksen +1-Wire,2013-09-06 13:52:00,
2013-09-06 09:58:00,57.7,42.7,30.19,NNW,331,3.4,5.6,57,0.00,n/a,n/a,-99.99,Henriksen +1-Wire,2013-09-06 13:58:00,
2013-09-06 10:04:00,58.1,44.1,30.19,NNW,330,2.6,5.6,59,0.00,n/a,n/a,-99.99,Henriksen +1-Wire,2013-09-06 14:04:00,
2013-09-06 10:10:00,58.4,41.2,30.19,NNW,327,2.5,4.7,52,0.00,n/a,n/a,-99.99,Henriksen +1-Wire,2013-09-06 14:10:00,
2013-09-06 10:16:00,58.3,32.8,30.19,NNW,334,2.1,4.7,37,0.00,n/a,n/a,-99.99,Henriksen +1-Wire,2013-09-06 14:16:00,
2013-09-06 10:22:00,58.7,25.6,30.18,WSW,248,1.4,4.7,27,0.00,n/a,n/a,-99.99,Henriksen +1-Wire,2013-09-06 14:22:00,
2013-09-06 10:28:00,59.0,41.1,30.19,NNW,329,3.6,5.0,51,0.00,n/a,n/a,-99.99,Henriksen +1-Wire,2013-09-06 14:28:00,
2013-09-06 10:34:00,59.2,41.5,30.19,NNW,331,2.5,5.1,51,0.00,n/a,n/a,-99.99,Henriksen +1-Wire,2013-09-06 14:34:00,
2013-09-06 10:40:00,59.5,42.6,30.19,NNW,336,2.7,5.1,53,0.00,n/a,n/a,-99.99,Henriksen +1-Wire,2013-09-06 14:40:00,
2013-09-06 10:46:00,60.5,29.6,30.19,East,88,1.5,4.8,30,0.00,n/a,n/a,-99.99,Henriksen +1-Wire,2013-09-06 14:46:00,
2013-09-06 10:52:00,60.5,38.2,30.19,WNW,294,1.8,4.8,43,0.00,n/a,n/a,-99.99,Henriksen +1-Wire,2013-09-06 14:52:00,
2013-09-06 10:58:00,60.7,41.5,30.19,NW,308,2.6,8.3,48,0.00,n/a,n/a,-99.99,Henriksen +1-Wire,2013-09-06 14:58:00,